This demonstration page uses our WeatherBlox Daily Observations layout. Learn more.

Left ArrowRight Arrow

36.17497, -115.13722

Hourly Observations for November 22, 2020

Temp ( °F °C ) Dew Point ( °F °C ) Humidity (%) Winds ( mph kmh ) Pressure ( in mb ) Visibility ( mi km ) Precip ( " mm )
12:53 am 00:53 Clear 56 13.3 26 -3.3 32 32 WNW 7 11 30.12 1020 10 16 0.00 0.00
1:53 am 01:53 Clear 56 13.3 25 -3.9 30 30 W 3 6 30.11 1020 10 16 0.00 0.00
2:53 am 02:53 Clear 55 12.8 22 -5.6 28 28 NW 8 13 30.09 1019 10 16 0.00 0.00
3:53 am 03:53 Clear 56 13.3 18 -7.8 22 22 NNW 8 13 30.08 1019 10 16 0.00 0.00
4:53 am 04:53 Clear 52 11.1 21 -6.1 30 30 WNW 7 11 30.09 1019 10 16 0.00 0.00
5:53 am 05:53 Clear 50 10 21 -6.1 32 32 WNW 7 11 30.10 1019 10 16 0.00 0.00
6:53 am 06:53 Sunny 53 11.7 16 -8.9 23 23 NNW 13 20 30.10 1019 10 16 0.00 0.00
7:53 am 07:53 Sunny 55 12.8 17 -8.3 22 22 NW 10 17 30.10 1019 10 16 0.00 0.00
8:53 am 08:53 Sunny 59 15 18 -7.8 20 20 WNW 7 11 30.09 1019 10 16 0.00 0.00
9:53 am 09:53 Sunny 62 16.7 20 -6.7 20 20 WNW 3 6 30.07 1018 10 16 0.00 0.00
10:53 am 10:53 Sunny 66 18.9 17 -8.3 15 15 NW 5 7 30.04 1017 10 16 0.00 0.00
11:53 am 11:53 Sunny 67 19.4 18 -7.8 15 15 Calm 29.98 1015 10 16 0.00 0.00
12:53 pm 12:53 Sunny 68 20 18 -7.8 15 15 Calm 29.95 1014 10 16 0.00 0.00
1:53 pm 13:53 Sunny 69 20.6 18 -7.8 14 14 ENE 3 6 29.92 1013 10 16 0.00 0.00
2:53 pm 14:53 Sunny 69 20.6 19 -7.2 15 15 ESE 3 6 29.89 1012 10 16 0.00 0.00
3:53 pm 15:53 Sunny 69 20.6 19 -7.2 15 15 Calm 29.88 1012 10 16 0.00 0.00
4:53 pm 16:53 Clear 67 19.4 20 -6.7 17 17 Calm 29.88 1012 10 16 0.00 0.00
5:53 pm 17:53 Clear 61 16.1 22 -5.6 22 22 WNW 3 6 29.90 1012 10 16 0.00 0.00
6:53 pm 18:53 Clear 58 14.4 24 -4.4 27 27 W 6 9 29.90 1012 10 16 0.00 0.00
7:53 pm 19:53 Clear 56 13.3 22 -5.6 27 27 Calm 29.89 1012 10 16 0.00 0.00
8:53 pm 20:53 Clear 54 12.2 24 -4.4 31 31 WNW 5 7 29.88 1012 10 16 0.00 0.00
9:53 pm 21:53 Clear 51 10.6 24 -4.4 35 35 NW 7 11 29.88 1012 10 16 0.00 0.00
10:53 pm 22:53 Clear 50 10 23 -5 35 35 WNW 5 7 29.86 1011 10 16 0.00 0.00
11:53 pm 23:53 Clear 49 9.4 22 -5.6 35 35 NNW 5 7 29.84 1011 10 16 0.00 0.00

Powered by AerisWeather